NOTL Lakeshore

*Note: All times are displayed in the local standard time of the station location.
**Rain - Equipment is designed to accurately record liquid precipitation; under conditions when precipitation is not in liquid form, the data displayed may not properly reflect rainfall values.

Date Max Temp
(°C)
Min Temp
(°C)
Avg Temp
(°C)
Rain (mm) Avg RH (%)
Sun, Dec 10, 2017 -0.5 -2.2 -1.3 0.0 69.7
Sat, Dec 09, 2017 1.1 -3.0 -0.5 0.0 62.8
Fri, Dec 08, 2017 0.4 -4.2 -1.5 0.0 61.3
Thu, Dec 07, 2017 1.5 -3.2 -0.3 0.0 62.7
Wed, Dec 06, 2017 4.2 -0.7 1.8 0.0 51.7
Tue, Dec 05, 2017 11.7 0.9 8.0 4.4 68.0
Mon, Dec 04, 2017 10.9 -2.9 5.3 0.2 73.0
DateTime Avg Temp (°C) Rain (mm) RH (%)
Mon, Dec 11, 2017 02:00 -1.8 0.0 77.5
Mon, Dec 11, 2017 01:00 -0.9 0.0 78.3
Mon, Dec 11, 2017 00:00 -1.3 0.0 75.8
Sun, Dec 10, 2017 23:00 -1.9 0.0 73.8
Sun, Dec 10, 2017 22:00 -1.8 0.0 72.0
Sun, Dec 10, 2017 21:00 -1.8 0.0 69.0
Sun, Dec 10, 2017 20:00 -1.8 0.0 67.8
Sun, Dec 10, 2017 19:00 -1.6 0.0 65.5
Sun, Dec 10, 2017 18:00 -1.4 0.0 63.0
Sun, Dec 10, 2017 17:00 -1.3 0.0 65.8
Sun, Dec 10, 2017 16:00 -1.1 0.0 65.5
Sun, Dec 10, 2017 15:00 -1.0 0.0 66.3
Sun, Dec 10, 2017 14:00 -1.0 0.0 65.5
Sun, Dec 10, 2017 13:00 -1.1 0.0 68.3
Sun, Dec 10, 2017 12:00 -1.2 0.0 63.0
Sun, Dec 10, 2017 11:00 -1.8 0.0 62.3
Sun, Dec 10, 2017 10:00 -2.1 0.0 62.8
Sun, Dec 10, 2017 09:00 -2.0 0.0 62.0
Sun, Dec 10, 2017 08:00 -1.8 0.0 63.8
Sun, Dec 10, 2017 07:00 -1.2 0.0 67.5
Sun, Dec 10, 2017 06:00 -0.9 0.0 68.3
Sun, Dec 10, 2017 05:00 -0.6 0.0 71.0
Sun, Dec 10, 2017 04:00 -0.8 0.0 81.3
Sun, Dec 10, 2017 03:00 -1.2 0.0 86.3
Sun, Dec 10, 2017 02:00 -1.1 0.0 83.0
Sun, Dec 10, 2017 01:00 -0.9 0.0 83.5
Sun, Dec 10, 2017 00:00 -2.3 0.0 90.8
Sat, Dec 09, 2017 23:00 -2.6 0.0 86.8
Sat, Dec 09, 2017 22:00 -1.9 0.0 80.5
Sat, Dec 09, 2017 21:00 -0.9 0.0 71.5
Sat, Dec 09, 2017 20:00 -0.3 0.0 64.8
Sat, Dec 09, 2017 19:00 -0.5 0.0 62.5
Sat, Dec 09, 2017 18:00 -0.7 0.0 62.0
Sat, Dec 09, 2017 17:00 0.0 0.0 56.3
Sat, Dec 09, 2017 16:00 0.8 0.0 51.8
Sat, Dec 09, 2017 15:00 0.9 0.0 50.8
Sat, Dec 09, 2017 14:00 1.1 0.0 52.0
Sat, Dec 09, 2017 13:00 1.0 0.0 50.0
Sat, Dec 09, 2017 12:00 1.1 0.0 51.8
Sat, Dec 09, 2017 11:00 0.3 0.0 58.8
Sat, Dec 09, 2017 10:00 -1.0 0.0 63.5
Sat, Dec 09, 2017 09:00 -1.7 0.0 68.3
Sat, Dec 09, 2017 08:00 -1.1 0.0 71.0
Sat, Dec 09, 2017 07:00 -0.1 0.0 71.0
Sat, Dec 09, 2017 06:00 -0.3 0.0 68.3
Sat, Dec 09, 2017 05:00 -0.6 0.0 58.8
Sat, Dec 09, 2017 04:00 -0.6 0.0 55.3
Sat, Dec 09, 2017 03:00 -0.6 0.0 55.0


asterix Register now to access more data! asterix